OpenBCM V1.08-5-g2f4a (Linux)

Packet Radio Mailbox

IZ3LSV

[San Dona' di P. JN]

 Login: GUEST





  
LU9DCE > KEP      10.12.19 17:13l 244 Lines 12055 Bytes #999 (0) @ WW
BID : 4910_LU9DCE
Read: GUEST
Subj: TLE 10 12
Path: IZ3LSV<IK6IHL<IK7NXU<HB9ON<IW2OHX<IR2UBX<EA2RCF<LU9DCE
Sent: 191210/1600Z 4910@LU9DCE.TOR.BA.ARG.SOAM LinBPQ6.0.19

            __    _  _  ___  ____   ___  ____    ____  ____  ____
           (  )  / )( \/ _ \(    \ / __)(  __)  (  _ \(  _ \/ ___)
           / (_/\) \/ (\__  )) D (( (__  ) _)    ) _ ( ) _ (\___ \
           \____/\____/(___/(____/ \___)(____)  (____/(____/(____/
               ESTACION DE PACKET RADIO - BUENOS AIRES (GF05OM)
                   BOLETINES INFORMATIVOS PROGRAMADOS (BIP)
                      LINUX - HELLOCODELINUX@GMAIL.COM
+----------------------------------------------------------------------------+
OSCAR 7
1  7530U 74089B   19344.14109804 -.00000047  00000-0 -93256-5 0  9994
2  7530 101.7716 310.1714 0012388  11.7877 359.0760 12.53641116 62389
OSCAR 11 (UoSAT 2)
1 14781U 84021B   19344.50858502  .00000094  00000-0  17563-4 0  9999
2 14781  97.5995   0.8473 0009952 103.5598 256.6725 14.83126539924678
OSCAR 19 (LUSAT)
1 20442U 90005G   19344.09653307 -.00000005  00000-0  14405-4 0  9994
2 20442  98.6690 285.9513 0011812   1.1507 358.9702 14.32940135561358
EYESAT A
1 22825U 93061C   19343.92610283 -.00000010  00000-0  14234-4 0  9999
2 22825  98.9163 336.6564 0007911 205.5724 154.5067 14.30073061366854
ITAMSAT
1 22826U 93061D   19343.88714256 +.00000001 +00000-0 +18345-4 0  9996
2 22826 098.9102 336.5863 0008618 194.0763 166.0180 14.30407527366806
RADIO ROSTO
1 23439U 94085A   19343.88143221 -.00000011 +00000-0 +90645-3 0  9996
2 23439 064.8134 194.4365 0145823 079.0975 282.6318 11.27569219027531
JAS 2
1 24278U 96046B   19343.98473703 -.00000047  00000-0 -13905-4 0  9994
2 24278  98.5630 113.9791 0350861 148.1039 214.1878 13.53095194151374
TECHSAT 1B
1 25397U 98043D   19344.12652409 -.00000022  00000-0  97381-5 0  9998
2 25397  98.7077 282.2874 0000365 198.1550 161.9615 14.23675726112693
ISS (ZARYA)
1 25544U 98067A   19344.35016344  .00002733  00000-0  55664-4 0  9992
2 25544  51.6436 207.9460 0007267  20.2124 150.5546 15.50112199202585
PCSAT
1 26931U 01043C   19344.49518900 -.00000054  00000-0  11049-4 0  9995
2 26931  67.0516 272.5960 0007186 264.4668  95.5614 14.30561142949972
SAUDISAT 1C
1 27607U 02058C   19343.92898306 -.00000042 +00000-0 +14900-4 0  9997
2 27607 064.5550 236.8821 0070198 222.2183 137.3503 14.75594036912619
CUTE-1
1 27844U 03031E   19343.98921376  .00000045  00000-0  39796-4 0  9994
2 27844  98.6836 349.5951 0008917 244.2887 115.7371 14.22209880853066
CUBESAT XI 4
1 27848U 03031J   19343.60893194 +.00000037 +00000-0 +36764-4 0  9996
2 27848 098.6910 349.7541 0008713 258.6130 101.4069 14.21800752852827
MOZHAYETS 4
1 27939U 03042A   19344.40908110  .00000067  00000-0  20596-4 0  9992
2 27939  98.0640 117.0878 0012107 230.5038 129.5104 14.66822771866155
CUBESAT XI 5
1 28895U 05043F   19344.17167277  .00000087  00000-0  25575-4 0  9996
2 28895  97.9831 121.1933 0017364 157.2857 202.9118 14.63718829753004
CUTE-1.7+APD II
1 32785U 08021C   19343.81212958  .00000172  00000-0  24122-4 0  9997
2 32785  97.5588 335.4038 0014195  49.9162 310.3297 14.88386057629581
DELFI C3
1 32789U 08021G   19343.90185423 +.00000713 +00000-0 +51173-4 0  9994
2 32789 097.4440 028.1400 0010776 245.7058 114.3045 15.07310149633108
SEEDS
1 32791U 08021J   19343.53606756  .00000351  00000-0  40926-4 0  9995
2 32791  97.5323 341.2507 0013949  24.9642 335.2248 14.90928006630014
YUBELEINY
1 32953U 08025A   19344.53602335  .00000021  00000-0  75656-4 0  9991
2 32953  82.5056  36.0267 0020378 108.2686 252.0613 12.43092656524036
PRISM (HITOMI)
1 33493U 09002B   19343.81510577 +.00000906 +00000-0 +84555-4 0  9993
2 33493 098.1290 271.4163 0014335 331.6326 028.4112 14.96832128591183
KKS-1 (KISEKI)
1 33499U 09002H   19343.82626716  .00000089  00000-0  21072-4 0  9990
2 33499  98.3341 187.9782 0009521  19.7622 340.3953 14.75486595584901
SWISSCUBE
1 35932U 09051B   19344.45595190  .00000099  00000-0  33442-4 0  9994
2 35932  98.5995 155.7241 0007450 357.9481   2.1683 14.56337964542219
BEESAT
1 35933U 09051C   19344.44860740  .00000097  00000-0  32794-4 0  9997
2 35933  98.6008 157.5419 0005948  13.5903 346.5453 14.56420563542327
ITUPSAT 1
1 35935U 09051E   19344.46994379  .00000076  00000-0  28595-4 0  9998
2 35935  98.6116 157.7869 0008183   8.6784 351.4552 14.55573565542062
XIWANG-1 (HOPE-1)
1 36122U 09072B   19344.47031312 -.00000029  00000-0  35753-4 0  9993
2 36122 100.0807 338.6808 0007012 304.4739  55.5712 13.16352563479873
TISAT 1
1 36799U 10035E   19343.68042386 +.00000244 +00000-0 +30668-4 0  9997
2 36799 098.1746 141.8591 0011318 231.7330 128.2870 14.91221751510493
JUGNU
1 37839U 11058B   19344.13145149  .00000302  00000-0  19241-4 0  9990
2 37839  19.9626 356.9426 0019178  90.1599 318.7029 14.12666426421958
SRMSAT
1 37841U 11058D   19343.88646787  .00000297  00000-0  17998-4 0  9998
2 37841  19.9728  58.8047 0011789 311.1812 205.6829 14.10645050421326
M-CUBED/EXP-1 PRIME
1 37855U 11061F   19344.17637300  .00001273  00000-0  71027-4 0  9999
2 37855 101.7251 329.4471 0172200 279.4769  78.7017 15.05865749443037
HORYU 2
1 38340U 12025D   19343.82886558 +.00000149 +00000-0 +29799-4 0  9992
2 38340 098.3089 027.4559 0010286 291.1173 068.8936 14.75784925396437
STRAND 1
1 39090U 13009E   19343.81179206 +.00000050 +00000-0 +32666-4 0  9990
2 39090 098.4695 186.7101 0009990 127.3501 232.8596 14.35109091355342
SOMP
1 39134U 13015E   19344.00522009  .00000911  00000-0  50187-4 0  9995
2 39134  64.8616 175.5383 0037678 275.1511  84.5317 15.20560168367095
BEESAT 3
1 39135U 13015F   19343.91099804 +.00000524 +00000-0 +35334-4 0  9994
2 39135 064.8652 196.6198 0042243 278.0335 081.5999 15.17779226366291
BEESAT 2
1 39136U 13015G   19343.88279823  .00000727  00000-0  46062-4 0  9997
2 39136  64.8688 201.0509 0030625 283.8275  75.9443 15.17200148366592
CUBEBUG 1
1 39153U 13018D   19344.52876043  .00000166  00000-0  28610-4 0  9994
2 39153  97.9822  81.7119 0016668 356.6203   3.4894 14.80636472357687
ZACUBE
1 39417U 13066B   19344.00129664  .00000185  00000-0  29481-4 0  9991
2 39417  97.5611 347.6973 0058879 181.0406 179.0695 14.81189687326844
TRITON 1
1 39427U 13066M   19343.82619789  .00000134  00000-0  29647-4 0  9991
2 39427  97.6994 310.6600 0113074 328.6701  30.7800 14.67917049323880
GOMX 1
1 39430U 13066Q   19344.40269450  .00000232  00000-0  50512-4 0  9990
2 39430  97.7696 289.6457 0152350  63.5667 298.1070 14.59321090322081
HUMSAT D
1 39433U 13066T   19343.82167154  .00000287  00000-0  33093-4 0  9991
2 39433  97.5327  24.0151 0032185  80.3283 280.1570 14.92322332329045
CUBEBUG 2
1 39440U 13066AA  19343.85444734  .00000155  00000-0  28618-4 0  9995
2 39440  97.6136 332.1150 0078915 238.7233 120.6232 14.75928054325660
FUNCUBE 1
1 39444U 13066AE  19343.76982632  .00000213  00000-0  32384-4 0  9993
2 39444  97.5575 349.5816 0058168 174.8776 185.3046 14.82023930325715
UWE-3
1 39446U 13066AG  19343.96645604  .00000148  00000-0  26351-4 0  9996
2 39446  97.5868 339.3905 0069202 210.3482 149.3716 14.78462117325015
SPROUT
1 39770U 14029E   19344.53747498  .00000528  00000-0  64295-4 0  9995
2 39770  97.8912  86.7845 0007976 227.5047 132.5504 14.87533774300820
UNISAT 6
1 40012U 14033C   19343.86479882 +.00000142 +00000-0 +28680-4 0  9995
2 40012 097.7317 202.7405 0056953 255.5742 103.9143 14.74042231294342
DUCHIFAT 1
1 40021U 14033M   19344.06786280  .00000383  00000-0  44867-4 0  9993
2 40021  97.9317 269.2829 0012405 189.3408 170.7581 14.90757692297522
QB50P1
1 40025U 14033R   19343.81846903  .00000171  00000-0  24194-4 0  9994
2 40025  97.9092 263.2229 0011771 200.9112 159.1625 14.89034275297232
CHUBUSAT 1
1 40300U 14070C   19344.18754270  .00000524  00000-0  25659-4 0  9996
2 40300  97.3132  53.8162 0020120 158.0332 254.9796 15.22281044282560
NUDT-PHONESAT
1 40900U 15049B   19344.54318701  .00001671  00000-0  73213-4 0  9997
2 40900  97.4355 352.2074 0011260 295.3392 189.8086 15.23373854234273
ZDPS 2A
1 40901U 15049C   19344.45763554  .00000552  00000-0  30495-4 0  9990
2 40901  97.4617 347.7939 0012514 321.1981 198.4602 15.17969323233745
ZDPS 2B
1 40902U 15049D   19344.42966255  .00000862  00000-0  45820-4 0  9993
2 40902  97.4574 345.1258 0012396 318.1187 177.9104 15.17872357233712
XW-2A
1 40903U 15049E   19344.39687007  .00001365  00000-0  33551-4 0  9992
2 40903  97.3169  27.9809 0012015 228.0967 231.1562 15.42403053237178
KAITUO 1A
1 40904U 15049F   19344.45939985  .00000439  00000-0  26641-4 0  9998
2 40904  97.4719 343.5395 0013822 328.0589 187.5530 15.15530596233466
OBJECT G
1 40905U 15049G   19344.39747010  .00000543  00000-0  33076-4 0  9994
2 40905  97.4778 340.8529 0014678 323.5099 172.1397 15.14412597233311
XW-2C
1 40906U 15049H   19344.41466694  .00000524  00000-0  30822-4 0  9999
2 40906  97.4727 343.6628 0013778 318.6866 147.3228 15.15853567233464
XW-2D
1 40907U 15049J   19344.44580752  .00000350  00000-0  21647-4 0  9997
2 40907  97.4708 343.3791 0013101 315.9091 204.2457 15.16057384233485
LILACSAT 2
1 40908U 15049K   19344.43321630  .00000048  00000-0  62795-5 0  9999
2 40908  97.4846 341.9816 0015091 323.9174 172.0768 15.13907653233243
XW-2F
1 40910U 15049M   19344.50058054  .00000701  00000-0  38234-4 0  9993
2 40910  97.4654 345.7067 0013356 305.9786 205.5222 15.17582911233522
XW-2B
1 40911U 15049N   19344.41632382  .00000685  00000-0  39088-4 0  9995
2 40911  97.4723 344.0275 0013085 317.5595 179.1821 15.15988247233373
KAITUO 1B
1 40912U 15049P   19344.38780826  .00000882  00000-0  44201-4 0  9991
2 40912  97.4500 349.5110 0013394 285.2538 182.1404 15.19931762233843
TIANWANG 1C (TW-1C)
1 40926U 15051B   19344.40464995  .00011970  00000-0  15181-3 0  9992
2 40926  97.1146  30.5376 0008956  83.8683 286.9335 15.59544897237352
